SCP
0 0 0 0 0 0 0 0 0 0 0 0 0 0 0 0 0 0 0 0 0 0 0 0 0 0 0 0 0 0 0 0 0 0 0 0 0 0 0 0 0 0 0 0
0 0 0 0 0 0 0 0 0 0 0 0 0 0 0 0 0 0 0 0 0 0 0 0 0 0 0 0 0 0 0 0 0 0 0 0 0 0 0 0 0 0 0 0
0 0 0 0 0 0 0 0 0 0 0 0 0 0 0 0 0 0 0 0 0 0 0 0 0 0 0 0 0 0 0 0 0 0 0 0 0 0 0 0 0 0 0 0
0 0 0 0 0 0 0 0 0 0 0 0 0 0 0 0 0 0 0 0 0 0 0 0 0 0 0 0 0 0 0 0 0 0 0 0 0 0 0 0 0 0 0 0
0 0 0 0 0 0 0 0 0 0 0 0 0 0 0 0 0 0 0 0 0 0 0 0 0 0 0 0 0 0 0 0 0 0 0 0 0 0 0 0 0 0 0 0
0 0 0 0 0 0 0 0 0 0 0 0 0 0 0 0 0 0 0 0 0 0 0 0 0 0 0 0 0 0 0 0 0 0 0 0 0 0 0 0 0 0 0 0
0 0 0 0 0 0 0 0 0 0 0 0 0 0 0 0 0 0 0 0 0 0 0 0 0 0 0 0 0 0 0 0 0 0 0 0 0 0 0 0 0 0 0 0
0 0 0 0 0 0 0 0 0 0 0 0 0 0 0 0 0 0 0 0 0 0 0 0 0 0 0 0 0 0 0 0 0 0 0 0 0 0 0 0 0 0 0 0
0 0 0 0 0 0 0 0 0 0 0 0 0 0 0 0 0 0 0 0 0 0 0 0 0 0 0 0 0 0 0 0 0 0 0 0 0 0 0 0 0 0 0 0
0 0 0 0 0 0 0 0 0 0 0 0 0 0 0 0 0 0 0 0 0 0 0 0 0 0 0 0 0 0 0 0 0 0 0 0 0 0 0 0 0 0 0 0
0 0 0 0 0 0 0 0 0 0 0 0 0 0 0 0 0 0 0 0 0 0 0 0 0 0 0 0 0 0 0 0 0 0 0 0 0 0 0 0 0 0 0 0
0 0 0 0 0 0 0 0 0 0 0 0 0 0 0 0 0 0 0 0 0 0 0 0 0 0 0 0 0 0 0 0 0 0 0 0 0 0 0 0 0 0 0 0
0 0 0 0 0 0 0 0 0 0 0 0 0 0 0 0 0 0 0 0 0 0 0 0 0 0 0 0 0 0 0 0 0 0 0 0 0 0 0 0 0 0 0 0
0 0 0 0 0 0 0 0 0 0 0 0 0 0 0 0 0 0 0 0 0 0 0 0 0 0 0 0 0 0 0 0 0 0 0 0 0 0 0 0 0 0 0 0
0 0 0 0 0 0 0 0 0 0 0 0 0 0 0 0 0 0 0 0 0 0 0 0 0 0 0 0 0 0 0 0 0 0 0 0 0 0 0 0 0 0 0 0
0 0 0 0 0 0 0 0 0 0 0 0 0 0 0 0 0 0 0 0 0 0 0 0 0 0 0 0 0 0 0 0 0 0 0 0 0 0 0 0 0 0 0 0
0 0 0 0 0 0 0 0 0 0 0 0 0 0 0 0 0 0 0 0 0 0 0 0 0 0 0 0 0 0 0 0 0 0 0 0 0 0 0 0 0 0 0 0
0 0 0 0 0 0 0 0 0 0 0 0 0 0 0 0 0 0 0 0 0 0 0 0 0 0 0 0 0 0 0 0 0 0 0 0 0 0 0 0 0 0 0 0
0 0 0 0 0 0 0 0 0 0 0 0 0 0 0 0 0 0 0 0 0 0 0 0 0 0 0 0 0 0 0 0 0 0 0 0 0 0 0 0 0 0 0 0
0 0 0 0 0 0 0 0 0 0 0 0 0 0 0 0 0 0 0 0 0 0 0 0 0 0 0 0 0 0 0 0 0 0 0 0 0 0 0 0 0 0 0 0
0 0 0 0 0 0 0 0 0 0 0 0 0 0 0 0 0 0 0 0 0 0 0 0 0 0 0 0 0 0 0 0 0 0 0 0 0 0 0 0 0 0 0 0
0 0 0 0 0 0 0 0 0 0 0 0 0 0 0 0 0 0 0 0 0 0 0 0 0 0 0 0 0 0 0 0 0 0 0 0 0 0 0 0 0 0 0 0
0 0 0 0 0 0 0 0 0 0 0 0 0 0 0 0 0 0 0 0 0 0 0 0 0 0 0 0 0 0 0 0 0 0 0 0 0 0 0 0 0 0 0 0
0 0 0 0 0 0 0 0 0 0 0 0 0 0 0 0 0 0 0 0 0 0 0 0 0 0 0 0 0 0 0 0 0 0 0 0 0 0 0 0 0 0 0 0
0 0 0 0 0 0 0 0 0 0 0 0 0 0 0 0 0 0 0 0 0 0 0 0 0 0 0 0 0 0 0 0 0 0 0 0 0 0 0 0 0 0 0 0
0 0 0 0 0 0 0 0 0 0 0 0 0 0 0 0 0 0 0 0 0 0 0 0 0 0 0 -0 -0 0 0 0 0 0 0 0 0 0 0 0 0 0 0 0
0 0 0 0 0 0 0 0 0 0 0 0 0 0 0 0 0 0 0 0 0 0 0 0 0 0 0 -0 -0 0 0 0 0 0 0 0 0 0 0 0 0 0 0 0
Wind_Speed
5 6 5 5 6 6 5 7 6 6 6 9 10 10 9 7 6 5 4 3 3 2 3 2 2 2 2 2 3 3 3 4 5 5 6 6 7 7 7 7 7 6 6 7
3 5 4 4 6 7 6 5 6 5 6 6 6 6 6 7 7 5 4 4 3 2 2 2 2 2 1 1 2 2 3 3 4 5 6 6 6 6 7 7 7 7 7 7
3 3 1 6 7 9 6 6 7 7 8 4 5 8 10 9 7 7 5 4 4 3 3 3 3 3 2 1 1 2 2 3 4 4 5 6 6 6 6 6 6 7 7 7
1 2 3 8 5 6 6 6 7 6 6 10 9 9 8 8 8 7 6 5 3 2 2 2 2 2 1 1 1 2 2 2 3 4 4 5 5 6 5 4 5 5 6 7
2 1 6 6 3 3 3 5 6 7 8 8 5 3 3 6 8 8 7 6 4 3 3 2 2 3 3 2 2 2 1 1 2 2 3 4 5 5 4 4 5 5 5 7
3 0 4 6 3 2 3 5 5 8 9 8 8 4 7 7 7 7 6 5 4 3 3 3 3 4 4 2 2 1 1 1 1 2 2 3 4 3 3 3 4 4 6 6
3 3 8 7 1 4 2 7 4 7 10 11 11 9 6 7 7 7 7 6 5 4 3 3 4 5 4 3 3 3 2 0 1 2 1 2 3 3 3 3 4 5 5 6
4 2 8 5 5 6 10 5 3 6 8 10 8 6 5 8 8 8 7 6 5 4 4 3 4 5 5 4 4 3 2 1 0 1 1 2 3 3 3 4 4 4 4 5
9 9 8 6 10 8 6 5 4 6 7 9 8 7 8 8 8 8 8 7 5 5 5 4 5 6 6 5 4 3 2 1 1 0 1 2 2 2 3 3 3 2 3 3
3 7 6 7 7 5 6 6 5 6 8 9 9 10 9 8 8 8 7 7 6 6 5 5 5 6 6 6 5 4 3 2 2 2 1 1 1 1 2 2 2 2 2 2
4 7 6 5 6 7 6 4 4 4 7 11 11 10 10 9 9 8 8 6 6 6 7 7 6 6 6 6 6 5 4 3 3 3 3 2 1 0 0 1 1 1 1 1
5 6 4 6 5 3 4 5 5 5 5 6 10 11 10 10 9 9 8 7 7 7 7 7 7 7 6 6 6 6 4 4 3 3 3 2 2 1 2 2 1 1 2 2
5 8 4 5 5 3 3 5 4 5 6 6 7 9 10 9 9 9 8 9 9 9 9 8 7 8 7 7 7 7 6 5 4 4 3 3 3 3 2 2 3 3 3 3
7 7 5 6 6 6 4 4 2 2 3 5 6 7 7 8 8 9 10 11 10 9 9 8 8 9 8 7 7 7 6 6 6 4 4 4 4 4 3 3 2 3 4 5
10 7 5 6 8 9 7 6 5 4 3 3 3 5 7 8 10 11 11 10 9 9 9 9 9 9 8 8 8 8 6 5 4 4 4 4 4 4 4 4 4 3 2 3
7 7 9 12 12 12 11 9 6 6 5 5 4 6 8 10 10 10 9 9 9 11 11 10 11 10 8 9 8 7 6 9 7 5 4 4 4 4 4 4 4 4 4 4
8 10 12 12 12 11 11 9 8 7 7 6 6 7 6 7 7 8 9 10 12 12 12 12 12 9 9 10 9 7 6 6 10 5 5 5 4 5 5 4 5 5 5 6
5 6 6 6 8 10 11 12 11 11 9 9 8 6 5 6 9 10 11 10 9 9 10 11 10 9 10 10 9 7 6 6 6 6 5 5 5 5 5 5 5 6 5 4
7 8 8 9 9 8 10 11 12 11 12 11 10 7 6 7 8 9 8 8 10 11 11 11 14 12 10 12 11 7 7 7 6 6 6 7 6 5 5 5 5 6 5 5
8 8 9 9 10 10 11 11 12 12 12 13 12 11 9 8 7 6 6 9 10 9 9 10 11 11 11 11 13 8 9 8 8 6 6 6 6 6 6 6 6 6 6 6
6 7 8 9 9 9 10 10 12 13 13 13 12 12 12 11 8 5 4 6 7 7 7 11 10 9 9 10 14 9 9 9 8 8 7 6 6 6 6 6 6 6 6 6
4 5 6 6 7 8 8 8 9 11 12 13 13 13 13 13 12 8 5 6 7 8 6 6 7 10 12 13 9 9 10 10 8 7 7 7 7 6 6 7 6 6 6 6
3 3 4 5 5 6 7 7 9 9 11 11 12 13 12 10 8 8 9 8 8 9 6 5 8 12 15 11 8 9 10 10 9 8 8 8 7 7 7 7 6 6 6 6
3 4 4 4 4 5 7 7 7 6 7 8 8 10 10 10 9 7 7 13 15 12 6 7 10 11 13 7 7 8 9 9 8 8 8 7 7 7 6 6 6 6 6 7
3 3 4 4 4 4 5 6 6 6 7 6 8 8 7 6 7 10 10 12 16 14 7 8 10 8 6 4 6 7 7 7 8 7 7 7 7 7 7 7 7 6 6 6
3 3 3 3 3 3 3 3 4 4 5 6 6 6 7 7 8 8 9 11 14 15 10 8 8 6 3 2 3 4 5 5 6 6 7 7 7 7 7 7 9 7 6 6
4 3 3 3 3 3 3 3 3 4 4 5 6 7 7 7 7 8 9 9 10 10 9 9 8 8 6 5 3 3 2 3 3 4 5 5 5 6 7 8 7 6 6 6
Wind_Direction
223 214 181 192 199 193 180 188 198 233 226 228 210 204 203 203 206 216 232 241 245 257 267 275 275 290 311 334 343 3 19 17 7 0 5 10 13 13 14 20 25 22 25 22
281 239 206 230 225 210 215 208 214 227 252 236 188 179 191 198 196 209 223 227 236 247 254 256 242 242 277 334 348 26 33 14 5 11 13 11 11 13 18 20 19 22 25 23
301 309 20 277 241 206 212 208 189 212 231 169 169 190 196 199 200 206 209 213 219 233 239 241 228 208 210 241 28 47 37 14 7 14 17 9 12 17 17 17 21 24 22 23
40 42 247 256 261 190 202 228 209 205 192 178 191 197 198 192 190 195 197 201 210 224 235 229 204 184 168 119 72 63 43 14 3 12 13 7 12 14 10 16 23 23 22 21
90 319 287 293 276 162 180 268 218 195 188 190 168 137 242 211 187 188 194 194 198 200 191 182 177 162 132 112 87 74 47 2 345 1 11 11 9 4 5 21 27 24 22 25
99 51 262 263 269 126 89 285 253 183 181 172 140 164 242 214 187 184 184 182 181 174 162 162 171 145 130 135 131 150 226 287 325 357 16 12 3 4 11 29 32 32 34 29
160 237 267 258 194 83 114 250 254 181 178 170 180 199 208 176 177 178 181 185 174 167 172 184 171 146 142 163 192 213 211 231 1 4 18 24 16 20 29 37 39 36 35 28
153 201 265 233 150 184 219 234 219 188 183 182 198 196 176 171 176 179 183 185 176 174 192 194 175 156 162 195 214 208 191 179 357 358 16 62 46 33 37 46 48 36 34 28
183 212 237 210 205 218 190 205 216 193 192 176 173 178 178 179 181 186 188 191 186 182 193 201 191 174 179 209 204 189 180 197 208 73 52 72 76 57 40 42 54 43 42 35
231 264 257 246 247 250 214 218 218 193 181 170 176 181 182 183 187 191 194 194 191 182 190 206 207 201 199 198 189 179 189 208 197 172 143 81 71 75 71 49 53 55 59 46
266 284 306 301 258 248 246 246 230 194 183 181 178 183 185 188 193 195 196 196 187 189 199 210 207 209 209 196 180 183 198 207 199 190 179 169 149 118 155 228 205 175 190 181
249 265 242 265 282 244 224 238 226 201 194 193 186 188 188 194 197 196 197 194 193 198 204 209 203 209 210 196 183 182 196 206 202 197 193 186 183 242 308 260 272 213 202 192
285 287 250 295 344 349 250 249 232 205 197 198 201 194 190 196 200 198 199 197 199 203 206 205 202 209 210 197 186 185 193 200 200 198 195 195 195 200 240 286 282 275 257 238
346 358 11 353 333 333 330 313 282 248 225 206 201 197 194 198 199 200 204 206 205 203 204 203 203 212 210 194 188 193 196 200 196 198 199 200 204 206 205 211 243 268 261 248
360 9 355 335 352 0 357 1 4 333 302 272 230 208 202 201 206 211 212 206 199 202 207 203 207 217 206 192 191 194 193 198 199 199 201 204 206 207 208 212 217 229 242 260
335 4 17 18 12 4 3 -0 346 322 305 279 261 240 224 216 215 214 210 197 192 205 209 206 213 216 197 191 193 194 199 205 194 195 200 205 208 212 215 213 214 214 220 224
18 15 8 6 1 359 358 350 338 323 316 303 278 261 245 229 224 222 218 209 206 209 207 205 213 209 194 193 192 194 195 204 202 197 203 206 208 214 217 212 213 217 224 216
26 18 7 358 355 355 355 354 351 346 335 316 307 291 262 237 230 229 225 217 214 220 217 211 209 201 196 196 195 193 191 194 194 200 207 212 215 215 214 215 218 221 228 224
16 14 12 10 7 4 1 357 351 345 344 342 335 314 279 257 247 240 227 212 212 222 228 219 210 201 201 202 194 192 193 196 199 204 207 216 220 219 215 215 218 218 215 209
12 10 10 8 10 11 6 358 354 354 353 351 350 344 331 310 290 267 237 223 223 227 225 214 208 206 205 204 196 193 196 199 201 203 205 208 215 221 221 220 218 216 212 209
10 8 7 5 3 4 2 358 358 356 356 357 357 350 337 328 322 302 271 257 262 257 242 222 213 211 207 203 197 196 198 201 202 203 204 207 213 219 222 224 223 220 215 213
358 359 358 359 359 355 352 354 356 356 357 359 358 355 350 345 339 327 294 274 285 281 256 236 226 219 212 204 198 197 201 203 205 203 205 206 209 214 219 221 223 224 220 215
335 337 340 342 342 336 342 352 355 356 355 354 354 352 347 338 336 335 323 318 314 301 277 249 242 230 216 204 201 202 204 204 205 205 207 209 209 210 214 218 219 219 219 218
317 320 320 324 338 348 344 338 341 345 345 344 347 347 345 342 339 337 321 323 328 321 296 281 263 242 222 212 204 205 207 208 208 208 208 207 207 208 211 214 216 217 217 219
294 306 316 326 330 320 313 323 333 338 342 340 339 342 343 339 331 329 332 336 340 341 329 319 308 281 243 227 215 212 210 210 210 207 207 206 207 209 211 211 212 213 213 214
269 276 279 279 277 282 296 313 320 323 329 331 331 332 335 335 334 338 341 343 348 351 350 343 339 329 314 283 249 236 226 221 217 214 213 212 212 211 212 213 213 210 209 210
271 271 277 287 285 277 280 287 295 303 310 315 317 319 325 331 336 342 347 349 351 353 352 352 352 352 352 348 333 305 276 257 238 226 222 220 218 216 216 214 211 207 204 205